#timestamp,LO_Frequency,Hit,StdDev 
1691402415.2,286047000.2,N
1691402435.1,286047000.4,N
1691402436.0,286047000.4,N
1691402455.8,286047000.5,N
1691402475.6,286047001.4,N
1691402495.5,286047002.2,N
1691402515.3,286047000.1,N
1691402535.1,286047000.4,N
1691402555.9,286047000.9,N
1691402575.7,286047000.6,N
1691402595.6,286047000.3,N
1691402615.4,286047000.6,N
1691402635.2,286047002.4,N
1691402655.1,286047002.4,N
1691402656.0,286047002.4,N
1691402675.8,286047002.1,N
1691402695.7,286047002.8,N
1691402715.5,286047002.2,N
1691402735.3,286047002.6,N
1691402755.2,286047002.0,N
1691402775.9,286047002.8,N
1691402795.7,286047002.5,N
1691402815.6,286047002.6,N
1691402835.4,286047001.5,N
1691402855.2,286047002.0,N
1691402875.1,286047002.2,N
1691402876.0,286047002.2,N
1691402895.8,286047002.8,N
1691402915.7,286047002.1,N
1691402935.5,286047002.3,N
1691402955.3,286047002.4,N
1691402975.2,286047002.4,N
1691402995.0,286047000.1,N
1691402995.9,286047000.1,N
1691403015.8,286047002.8,Y
1691403035.6,286047001.2,P
1691403055.4,286047000.9,N
1691403075.3,286047002.7,P
1691403095.1,286046999.8,N
1691403115.8,286047002.4,N
1691403135.7,286047000.0,N
1691403155.5,286047000.9,N
1691403175.4,286046998.2,N
1691403195.2,286047000.8,N
1691403215.0,286046998.6,N
1691403215.9,286046998.6,N
1691403235.8,286046998.8,N
1691403255.6,286046998.5,N
1691403275.4,286047000.9,N
1691403295.3,286047000.5,N
1691403315.1,286047000.6,N
1691403335.9,286047000.6,N
1691403355.7,286047001.0,N
1691403375.5,286046999.9,N
1691403395.4,286047000.3,N
1691403415.2,286046998.6,N
1691403435.0,286047001.0,N
1691403435.9,286047001.0,N
1691403455.8,286047001.0,N
1691403475.6,286047000.6,N
1691403495.4,286046998.5,N
1691403515.3,286047000.6,N
1691403535.1,286047000.6,N
1691403555.9,286047000.8,N
1691403575.7,286046999.4,N
1691403595.5,286046998.6,N
1691403615.4,286046999.0,N
1691403635.2,286046998.2,N
1691403655.0,286046996.7,Y
1691403656.0,286046996.7,P
1691403675.8,286046999.3,N
1691403695.6,286046996.6,N
1691403715.5,286046996.7,N
1691403735.3,286046997.6,N
1691403755.1,286046997.8,N
1691403775.9,286046998.0,N
1691403795.7,286046997.3,N
1691403815.6,286046995.0,Y
1691403835.4,286046998.8,P
1691403855.2,286046996.6,P
1691403875.1,286046999.2,N
1691403876.0,286047011.9,Y
1691403895.8,286046999.9,P
1691403915.6,286046999.9,N
1691403935.5,286046999.8,N
1691403955.3,286047002.8,Y
1691403975.2,286047000.2,P
1691403995.9,286047000.0,N
1691404015.7,286047000.0,N
1691404035.6,286047000.3,N
1691404055.4,286047001.0,Y
1691404075.3,286047000.8,P
1691404095.1,286047000.5,N
1691404096.0,286047000.5,N
1691404115.8,286047000.4,N
1691404135.7,286047000.0,N
1691404155.5,286047002.2,Y
1691404175.4,286047000.3,P
1691404195.2,286047000.4,P
1691404215.0,286047000.7,P
1691404215.9,286047000.7,Y
1691404235.8,286047000.2,P
1691404255.6,286047000.4,P
1691404275.5,286046999.9,N
1691404295.3,286046998.1,Y
1691404315.1,286047000.9,P
1691404335.9,286047000.0,N
1691404355.7,286046999.9,N
1691404375.5,286047001.0,N
1691404395.4,286047000.0,N
1691404415.2,286046999.8,N
1691404435.1,286047000.6,N
1691404436.0,286047000.6,N
1691404455.8,286046998.3,Y
1691404475.6,286046998.6,P
1691404495.5,286047000.7,N
1691404515.3,286046998.5,N
1691404535.1,286046998.2,N
1691404555.9,286047000.8,N
1691404575.7,286046998.7,N
1691404595.6,286046998.3,N
1691404615.4,286046996.5,Y
1691404635.2,286046998.1,P
1691404655.1,286046998.3,N
1691404656.0,286046998.3,P
1691404675.8,286046998.6,Y
1691404695.7,286047001.0,P
1691404715.5,286047000.3,N
1691404735.3,286047000.0,N
1691404755.2,286046999.9,N
1691404775.9,286046999.8,N
1691404795.7,286047000.1,N
1691404815.6,286047000.2,N
1691404835.4,286047002.0,N
1691404855.3,286047002.7,Y
1691404875.1,286046991.0,P
1691404876.0,286046991.0,N
1691404895.8,286046990.8,N
1691404915.7,286046991.7,N
1691404935.5,286046990.6,N
1691404955.3,286046991.8,N
1691404975.2,286046991.8,N
1691404995.0,286046992.1,N
1691404995.9,286046992.1,N
1691405015.8,286046991.8,Y
1691405035.6,286047000.5,P
1691405055.4,286046998.5,N
1691405075.3,286046998.3,N
1691405095.1,286047000.8,N
1691405115.9,286047000.7,N
1691405135.7,286046999.6,N
1691405155.5,286046999.0,N
1691405175.4,286046998.5,N
1691405195.2,286047000.1,N
1691405215.0,286047001.9,N
1691405215.9,286047001.9,N
1691405235.8,286047001.3,N
1691405255.6,286046999.3,N
1691405275.4,286046999.6,N
1691405295.3,286047002.7,N
1691405315.1,286047002.3,N
1691405335.9,286046999.0,N
1691405355.7,286047002.4,N
1691405375.5,286047000.8,N
1691405395.4,286047000.2,N
1691405415.2,286047000.7,N
1691405435.0,286046998.8,N
1691405435.9,286046998.8,N
1691405455.8,286047000.6,N
1691405475.6,286046998.5,N
1691405495.5,286046998.9,N
1691405515.3,286047000.5,N
1691405535.1,286047010.4,Y
1691405555.9,286047002.9,P
1691405575.7,286046997.0,N
1691405595.5,286046998.4,N
1691405615.4,286047000.3,N
1691405635.2,286046998.2,N
1691405655.1,286046999.7,N
1691405656.0,286046999.7,N
1691405675.8,286046997.2,N
1691405695.6,286047001.8,N
1691405715.5,286047000.0,N
1691405735.3,286046998.8,N
1691405755.1,286046999.1,N
1691405775.9,286047000.8,N
1691405795.7,286047000.2,N
1691405815.6,286047002.2,N
1691405835.4,286047002.1,N
1691405855.2,286047002.3,N
1691405875.1,286047002.1,N
1691405876.0,286047002.1,N
1691405895.8,286047000.3,N
1691405915.6,286047001.0,N
1691405935.5,286047002.2,N
1691405955.3,286047000.3,N
1691405975.2,286046998.6,N
1691405995.9,286047002.1,N
